Theta_e
324 324 323 322 322 324 325 326 325 325 325 324 324 324 323 323 322 322 322 322 320 319 320 319 320 320 318 317 317 317 317 318 317 317 316 316 316 316 316 315 315 315 314 314 314 314 313 312 312 312 311 311 310 309 308 308 308 307 307 307 306 306 307 307 306 306 305 306 305 305 305 305 304 305 305 305 305 305 305 304 304 304 304 304 304
325 324 324 323 323 324 325 325 325 325 325 324 324 324 323 322 321 321 320 320 319 317 317 318 319 319 318 315 314 315 315 315 315 315 315 314 314 314 313 313 313 313 313 313 312 312 312 312 312 311 311 310 309 309 308 308 307 307 307 306 306 306 306 306 305 305 305 305 304 304 304 304 304 304 304 304 304 304 304 304 304 303 303 303 303
325 324 324 324 324 324 325 325 324 325 325 325 325 324 323 321 320 320 320 320 319 316 316 318 318 318 317 315 313 313 312 313 313 313 313 313 313 312 312 311 311 311 311 311 311 311 310 311 311 310 310 310 309 309 308 307 307 307 306 306 305 305 306 305 304 304 304 304 303 303 303 303 303 303 303 303 304 303 303 303 303 303 303 303 303
324 324 324 324 324 324 324 324 325 325 325 325 324 322 321 320 320 320 320 320 318 315 316 318 317 315 315 313 312 312 311 311 311 311 311 311 311 311 310 310 310 310 310 310 310 310 309 310 310 310 310 309 309 308 307 307 307 307 306 305 305 305 305 304 304 303 303 303 302 303 303 303 303 303 303 303 302 302 301 302 302 302 302 302 302
324 324 324 323 324 324 324 324 325 325 326 325 323 320 319 319 319 319 320 320 318 316 315 316 314 312 312 311 311 310 310 309 309 309 309 309 309 309 309 308 308 308 308 308 308 308 308 308 309 309 309 309 308 307 307 307 306 306 306 305 304 304 304 304 303 302 302 302 302 302 302 302 303 303 302 301 301 301 301 301 302 302 302 302 302
324 324 323 323 323 324 324 324 324 324 325 324 321 320 320 319 319 319 319 319 318 315 315 313 311 310 309 309 309 308 308 308 308 308 308 308 307 308 307 307 307 307 307 306 306 307 307 307 307 307 308 308 307 307 307 306 306 306 306 305 304 304 304 303 302 301 301 301 301 302 301 302 302 301 301 300 301 301 301 301 301 301 301 301 301
324 324 323 323 323 323 323 323 323 324 325 323 321 319 318 319 320 320 317 317 316 313 313 312 309 308 307 307 307 306 307 307 306 307 307 307 307 306 306 305 305 305 305 305 305 305 305 305 305 306 306 306 306 305 305 305 305 305 305 304 304 304 303 302 301 301 301 301 301 301 301 301 300 300 300 300 301 301 301 300 300 300 300 300 300
324 324 323 323 323 323 322 322 323 324 324 323 321 318 317 317 319 320 317 314 313 311 310 310 307 306 305 305 304 304 305 304 304 305 305 306 306 305 304 304 304 303 303 303 303 304 304 304 304 304 304 304 304 304 304 304 304 305 305 304 304 304 302 301 301 300 300 300 300 301 301 300 299 299 300 300 300 300 299 299 299 300 299 299 299
324 324 323 323 323 322 322 321 322 324 324 322 321 318 317 317 316 318 319 315 311 309 307 306 305 303 303 303 302 302 302 302 302 302 303 305 305 304 303 303 302 302 301 301 301 302 302 302 302 302 302 302 302 303 303 303 303 304 304 304 303 303 302 301 301 299 299 300 300 300 299 298 298 299 300 300 299 299 299 299 299 299 298 298 298
324 323 323 323 322 321 320 321 322 324 323 322 320 317 317 317 316 315 317 317 312 309 306 304 303 301 300 300 300 300 299 299 300 301 302 303 302 302 302 301 301 300 299 299 297 296 298 301 300 301 300 300 300 301 302 302 303 303 303 303 303 302 301 301 300 299 299 299 300 299 298 298 298 299 299 298 298 298 299 299 298 297 297 297 297
323 323 322 321 321 320 320 320 322 322 322 320 317 316 315 315 316 313 312 314 313 309 306 303 301 299 299 297 297 297 297 297 299 300 300 300 299 299 298 298 297 296 295 294 291 291 296 300 298 297 296 296 297 299 300 301 301 302 303 303 303 302 302 301 299 298 299 299 298 297 297 298 298 298 298 297 298 298 298 298 297 296 297 297 297
322 322 321 320 319 319 320 322 322 322 321 319 316 315 314 314 314 313 309 307 307 307 305 303 300 297 296 296 295 295 295 296 297 298 297 295 295 294 294 293 293 292 291 290 289 289 293 295 293 292 291 292 295 298 299 300 300 300 302 303 303 303 302 301 299 298 298 297 297 296 297 298 298 297 297 297 297 297 297 296 295 296 297 297 296
321 321 320 320 320 321 323 323 323 323 322 320 317 316 315 314 312 311 310 306 302 302 304 305 301 296 294 294 294 294 293 294 295 294 293 291 291 291 290 290 289 288 287 287 287 288 289 290 290 290 291 293 295 297 297 297 298 299 300 301 302 302 301 300 299 298 298 297 296 296 297 297 297 296 296 297 297 296 295 295 295 296 296 296 296
320 319 319 319 321 323 324 323 323 323 321 319 317 316 314 313 311 309 308 307 304 301 303 306 301 296 295 293 292 293 292 292 292 292 290 289 289 289 288 288 287 286 286 286 286 286 287 287 288 288 289 291 293 294 294 294 296 297 298 299 300 301 301 300 299 298 297 296 295 296 296 296 296 296 296 296 295 295 295 294 295 295 295 295 295
319 319 319 320 322 323 323 323 323 322 320 316 315 314 312 311 311 310 307 305 303 303 305 307 303 298 297 297 295 294 292 291 291 291 290 289 289 288 287 287 287 286 286 286 286 286 285 285 286 286 287 289 290 291 291 292 294 295 296 297 298 299 300 299 299 298 297 295 295 295 295 295 296 295 295 295 295 294 294 294 294 294 294 294 294
318 318 319 320 323 324 323 322 322 321 319 317 314 313 312 311 311 310 308 303 300 301 305 306 306 304 302 300 297 296 295 292 289 289 290 289 289 288 288 287 287 286 286 286 286 285 285 285 285 285 286 287 288 288 289 291 292 294 295 296 297 298 299 300 299 297 296 295 294 294 294 295 295 294 295 295 294 293 293 293 294 294 294 294 293
318 318 319 322 323 323 323 322 321 319 318 318 316 314 313 311 311 310 310 307 302 301 303 304 307 309 307 302 299 299 297 291 290 289 288 289 288 288 287 287 286 286 286 285 285 285 285 284 284 284 284 285 286 286 287 290 291 292 294 295 296 297 298 299 298 297 295 294 294 293 294 294 294 294 294 294 293 292 293 293 293 293 293 293 292
318 319 320 322 323 323 323 323 321 319 317 317 316 314 312 311 312 311 310 311 307 303 302 303 306 308 307 306 304 302 296 291 292 291 288 288 288 287 287 286 286 286 285 285 284 284 284 284 283 283 283 284 284 285 286 288 289 291 292 294 294 295 296 297 297 296 295 294 293 293 293 294 293 293 293 292 292 292 292 292 292 292 292 292 292
318 319 321 322 323 323 323 323 322 321 318 317 316 314 313 311 311 311 310 311 309 305 303 302 305 305 304 305 304 302 298 295 294 292 289 288 287 286 287 286 286 285 285 284 284 284 284 283 283 282 282 283 284 285 285 286 287 289 291 292 293 294 295 295 295 295 294 293 293 292 293 293 293 293 292 291 292 292 291 292 292 291 291 291 291
318 320 321 323 323 323 323 322 322 321 318 317 317 316 314 310 309 310 309 309 309 308 305 302 304 304 301 302 302 300 299 297 296 294 291 289 287 286 286 286 285 285 284 284 284 284 283 283 282 282 282 282 282 283 284 284 285 286 288 290 292 293 293 293 293 294 293 292 292 292 292 292 292 292 291 291 291 291 291 291 291 291 291 291 290
318 320 321 322 323 323 323 321 320 319 317 316 316 316 313 310 308 308 307 308 309 309 307 303 304 304 301 300 299 297 296 296 295 294 292 290 289 286 285 285 285 285 285 284 284 283 283 282 282 281 281 282 282 282 282 283 283 284 286 289 290 290 291 291 292 293 292 292 292 291 291 292 292 291 290 290 290 290 290 290 290 290 290 290 289
317 319 321 321 321 323 322 321 319 318 317 315 313 312 312 311 309 308 307 307 308 308 308 305 304 304 302 299 298 296 295 294 294 294 292 291 290 287 285 285 285 285 285 284 284 284 283 282 282 281 281 281 281 282 282 282 281 283 285 286 286 288 289 290 291 292 291 291 291 291 291 291 291 290 290 290 290 290 290 290 289 289 289 289 289
315 316 318 319 320 321 320 320 319 317 316 314 312 310 310 310 309 308 307 307 307 307 307 305 303 303 302 300 299 298 297 296 294 294 293 290 289 288 286 286 286 285 284 284 284 283 283 282 281 281 281 281 281 281 282 281 281 282 284 284 284 285 287 289 290 290 291 290 290 290 290 290 290 290 289 289 289 289 289 289 289 289 288 288 288
314 314 315 317 319 319 318 317 315 314 315 314 312 311 309 308 308 307 306 306 306 306 305 304 303 302 301 300 300 299 298 298 296 295 294 293 291 288 286 286 286 285 284 284 283 283 283 282 281 281 281 281 281 281 281 280 280 281 282 282 282 282 285 287 289 289 289 289 289 289 289 289 289 289 289 289 288 288 288 288 288 288 287 287 287
315 316 316 317 318 318 318 316 314 313 314 313 312 311 308 307 306 306 305 305 305 305 305 304 303 302 302 300 299 298 298 298 297 296 295 294 291 288 286 287 286 284 284 283 282 282 282 282 281 281 281 280 280 281 281 280 280 280 280 281 281 280 282 285 287 288 288 288 288 289 289 289 289 289 288 288 288 288 287 287 287 287 286 286 286
316 318 319 319 319 320 319 318 316 313 313 313 311 309 308 306 306 305 304 304 304 305 305 304 303 302 302 301 299 298 298 298 297 296 295 294 292 289 287 286 285 284 283 283 282 282 282 281 281 280 280 280 280 280 281 280 280 279 279 280 280 279 279 281 283 286 287 287 287 288 288 288 288 288 288 287 287 287 287 286 286 286 286 286 285
317 318 319 319 320 319 318 317 314 311 312 312 310 307 306 306 305 304 304 303 304 304 304 304 303 302 301 300 298 297 297 297 297 296 296 296 295 292 290 287 285 284 283 283 282 282 282 281 281 280 280 280 280 279 280 280 279 279 279 279 279 278 278 278 280 283 284 285 286 286 287 287 287 287 287 287 286 286 286 286 285 285 285 285 285
316 317 318 318 319 318 316 314 312 310 309 309 307 306 305 305 304 303 303 303 304 304 303 303 303 302 300 299 298 297 297 298 298 298 298 299 298 296 293 290 288 286 283 283 282 282 282 282 281 280 280 281 280 279 280 280 279 278 278 279 279 278 278 278 278 279 280 281 284 285 286 286 286 286 286 286 286 286 285 285 284 284 284 284 284
313 314 315 317 318 317 314 311 310 309 307 306 305 304 304 303 303 303 302 303 303 303 303 303 302 301 300 299 299 298 297 298 298 299 299 299 296 295 294 292 292 290 285 284 284 282 282 282 281 281 280 280 280 279 280 280 278 278 277 278 279 278 278 278 278 278 278 279 281 283 284 285 285 285 285 285 285 285 284 284 284 283 283 283 282
308 311 312 314 315 313 310 308 307 306 304 303 302 302 302 302 302 303 302 302 302 302 302 302 301 300 299 299 298 298 298 298 298 298 297 296 294 293 293 293 293 291 287 286 286 283 282 282 282 282 281 280 280 279 279 279 278 278 277 278 278 278 278 278 277 278 278 277 278 280 281 282 283 284 284 284 284 284 283 283 283 282 282 281 280
305 308 310 311 311 309 307 305 303 302 301 300 301 301 301 301 301 302 301 301 301 300 300 300 300 299 298 298 298 298 298 298 298 297 295 294 293 293 292 292 292 292 289 288 287 285 283 282 282 282 282 280 279 279 278 279 278 277 277 278 278 277 277 277 277 277 277 277 277 277 278 279 281 282 282 282 282 282 282 281 281 281 280 279 278
303 306 308 310 309 307 305 303 302 301 300 300 300 300 300 300 301 301 300 300 300 299 299 298 298 298 298 298 298 298 297 297 297 296 295 293 293 292 292 292 291 291 290 288 287 284 283 283 282 282 282 280 279 279 278 279 278 277 277 277 277 277 278 277 277 277 277 277 277 277 277 276 277 278 279 280 280 280 279 279 279 278 278 276 276
301 303 306 308 308 307 305 303 302 301 300 299 299 299 299 299 299 300 299 298 298 298 297 297 297 297 298 297 297 296 297 297 297 296 294 293 292 291 292 291 290 290 290 288 286 283 282 283 282 282 281 280 279 279 278 279 278 277 277 277 277 277 277 277 277 276 276 276 276 276 276 276 276 276 276 276 277 277 276 276 276 275 275 274 275
300 301 303 305 306 306 304 302 301 300 299 299 299 298 297 298 298 298 298 298 297 296 296 296 296 296 297 296 296 296 296 296 295 295 293 292 291 291 290 290 290 290 290 289 286 282 281 281 281 281 280 280 279 279 278 278 278 277 277 277 276 276 276 276 276 276 276 276 276 276 276 275 275 275 275 275 275 275 274 274 274 274 273 274 275
299 299 300 301 304 305 304 302 301 300 298 297 297 297 296 297 297 297 297 297 296 296 295 295 295 295 295 296 296 296 295 294 294 293 291 290 290 290 289 289 290 289 289 289 287 283 280 280 280 280 279 279 279 278 278 278 277 277 277 276 276 275 275 275 275 276 275 275 275 275 275 275 275 275 274 274 274 274 274 274 274 273 272 273 274
299 298 297 298 299 301 303 303 301 298 296 296 296 296 296 296 296 296 296 295 295 295 294 294 294 295 295 296 295 295 294 293 292 290 289 288 288 288 288 288 289 289 288 288 288 286 282 280 279 280 279 279 278 278 278 277 277 277 276 275 275 275 275 275 275 275 275 275 274 274 274 274 274 274 274 274 274 274 274 274 274 273 272 272 273
299 298 298 297 297 298 301 302 300 297 296 296 295 295 296 296 296 295 295 294 294 294 294 295 296 296 296 296 295 294 293 292 290 288 287 287 287 287 288 288 287 287 287 287 287 287 284 281 279 279 279 279 278 278 278 277 277 277 276 275 275 275 275 275 274 274 274 274 274 274 274 274 274 274 274 274 274 274 274 274 273 273 272 271 272
299 298 298 297 296 297 298 299 298 297 296 296 296 295 295 295 295 294 294 294 294 294 295 295 296 296 296 295 294 293 293 291 289 287 286 286 286 286 286 286 286 286 286 286 286 286 285 282 280 279 279 278 278 278 277 277 277 276 275 275 274 274 274 274 274 274 274 274 274 274 274 274 273 273 273 273 273 273 273 273 273 272 271 271 272
299 298 298 297 297 297 296 295 295 295 295 295 295 294 294 293 293 294 294 294 294 294 294 295 295 295 295 294 294 293 292 290 289 287 286 285 285 285 286 285 285 285 285 285 285 284 283 282 280 280 279 278 278 278 277 277 276 276 275 275 274 274 274 274 274 274 274 274 274 274 274 273 273 273 273 273 273 273 273 273 272 271 271 271 272
298 298 297 297 297 296 294 293 293 294 294 294 294 293 293 292 293 294 294 293 293 293 293 294 294 294 294 293 293 292 291 290 288 287 286 285 285 285 285 284 284 284 284 284 284 283 282 281 280 279 279 278 277 277 277 276 275 275 275 275 275 275 274 274 274 274 274 274 273 273 273 273 273 273 273 273 273 272 272 272 271 271 271 271 271
297 296 296 296 296 295 294 293 293 293 293 292 293 292 292 292 293 293 293 293 293 292 292 292 292 292 292 291 291 290 289 288 287 286 286 285 285 284 284 284 284 283 284 284 283 282 281 281 279 279 278 277 277 277 276 276 275 276 275 275 275 275 275 274 273 273 274 274 273 273 273 273 273 273 272 272 272 272 272 272 271 271 271 271 271
295 295 294 294 294 294 293 293 292 291 291 291 292 292 292 293 292 292 291 292 292 292 292 291 290 289 289 289 289 288 287 286 285 285 284 284 284 284 284 284 283 283 283 283 282 282 281 280 279 279 278 277 277 277 277 276 276 276 275 275 275 275 275 274 273 273 273 274 273 273 273 273 273 272 272 272 272 271 271 271 270 270 271 271 270
294 294 293 293 293 292 292 292 292 291 291 290 290 291 292 292 292 291 291 291 291 291 291 290 288 287 286 286 286 285 285 284 284 283 283 283 283 283 283 283 283 282 283 283 282 282 281 280 279 279 278 277 277 276 277 277 277 276 275 275 275 275 274 274 273 273 273 273 274 273 273 272 272 272 271 271 271 271 271 270 270 270 270 270 270
292 293 293 292 292 291 291 291 291 291 291 290 290 290 291 292 292 291 291 290 290 289 289 289 288 286 285 284 284 284 283 283 283 282 282 282 282 282 282 282 282 282 282 282 282 282 281 281 280 279 278 278 277 277 277 277 277 275 275 275 275 274 274 274 274 273 273 273 273 273 272 272 272 272 271 271 271 271 270 270 270 270 270 269 270
291 291 291 291 291 291 290 290 290 290 290 290 290 290 291 291 292 292 291 290 290 289 288 288 287 286 285 284 283 283 282 282 282 282 282 281 281 281 282 281 281 281 281 281 282 282 281 281 280 280 279 279 278 278 278 278 277 275 275 275 275 274 274 274 274 274 273 273 273 273 272 272 271 271 271 271 271 270 270 270 270 269 269 269 269
290 290 290 290 290 290 290 290 289 289 289 290 290 290 290 291 292 292 291 290 289 288 287 287 286 285 284 284 283 283 282 282 281 281 281 281 281 281 281 281 281 280 280 281 281 281 281 281 281 281 280 280 279 279 278 278 278 277 276 276 275 274 274 274 273 273 273 273 272 272 272 271 271 271 271 271 271 270 269 270 270 269 269 269 269
290 289 290 290 289 289 289 289 289 289 289 289 290 290 290 291 291 290 289 288 287 287 286 286 286 285 284 284 284 283 282 281 281 281 281 281 281 281 280 280 280 280 280 280 280 281 281 281 281 281 280 280 280 279 278 278 278 278 278 277 276 274 274 273 273 273 273 272 272 272 272 271 271 271 271 271 270 270 270 270 270 269 269 268 268
289 289 289 289 289 288 288 289 288 288 288 289 289 289 290 290 290 288 287 287 286 285 285 284 284 284 284 284 284 283 282 281 281 281 281 280 280 280 280 280 280 280 280 280 280 280 280 281 280 280 280 280 279 279 278 278 278 277 277 276 275 274 273 273 272 272 272 272 272 272 272 271 271 271 271 271 271 270 270 270 270 269 269 268 269
288 288 288 288 289 288 288 288 288 288 288 288 288 288 289 289 288 287 286 286 285 284 284 284 284 283 283 283 283 282 282 281 281 280 280 280 280 280 280 280 279 279 279 279 280 280 280 280 280 280 279 279 279 278 278 278 277 277 276 275 273 273 273 272 271 271 272 272 272 271 271 271 270 271 271 271 271 271 271 270 270 269 269 269 269
288 288 288 288 288 288 288 287 288 287 287 287 287 288 288 288 287 287 286 285 284 283 283 283 283 283 283 282 282 282 282 281 281 280 280 280 280 280 279 279 279 279 279 279 278 279 279 279 279 278 278 278 278 277 277 277 277 276 276 275 274 274 273 272 272 271 271 271 271 271 271 270 270 270 271 272 271 271 271 270 270 270 269 269 269
287 287 287 287 287 287 287 287 287 287 287 286 287 287 288 287 287 286 285 284 283 283 282 282 282 282 282 282 282 282 281 281 280 280 280 280 280 280 279 279 278 278 278 278 278 278 278 278 277 277 277 277 277 276 276 276 275 275 275 275 274 274 274 273 272 271 271 271 271 271 270 270 270 270 270 271 270 270 271 270 270 270 270 270 270
Wind_Speed
28 28 26 28 28 26 25 23 22 23 24 25 26 25 21 19 22 24 22 21 22 24 26 27 30 32 33 34 34 33 34 33 33 32 32 31 30 29 27 26 25 25 24 24 24 23 22 22 21 21 20 21 20 20 19 19 19 19 19 20 19 19 19 19 19 19 19 19 19 19 19 19 19 19 19 18 19 19 19 19 19 19 19 19 19
29 29 28 29 28 27 26 25 24 24 26 26 25 24 22 22 24 24 23 24 25 25 27 29 31 32 31 32 33 33 33 33 33 32 32 31 31 30 29 28 26 24 24 23 23 23 21 20 20 19 19 19 18 18 18 18 18 18 18 19 18 17 18 18 18 18 19 18 18 18 18 18 18 18 18 18 19 18 18 19 18 18 18 18 18
30 30 30 30 29 28 27 27 26 24 26 27 24 24 24 24 24 25 24 26 28 27 28 31 31 31 30 30 32 32 32 31 32 32 31 31 30 30 29 29 28 26 23 22 22 21 20 19 18 18 17 17 17 17 17 17 17 17 17 18 17 17 17 17 17 17 17 17 17 17 17 17 17 17 17 18 18 17 17 18 17 17 18 18 18
32 31 31 31 31 29 28 28 27 26 27 27 24 24 24 23 24 25 25 27 30 29 30 32 31 30 30 30 31 31 30 29 30 30 30 29 29 28 28 28 28 28 26 23 21 20 19 18 17 17 16 16 17 16 16 16 16 16 16 16 16 15 16 17 16 16 16 16 16 16 16 16 16 17 17 17 17 17 17 17 17 17 18 17 17
33 31 31 32 31 30 30 29 27 27 28 27 26 25 23 23 25 28 27 28 30 30 31 32 31 30 29 29 29 29 29 29 29 28 28 27 27 27 26 26 26 27 28 25 23 21 19 17 16 15 15 16 15 14 15 15 15 15 15 15 15 15 15 16 16 16 15 15 15 15 15 16 16 16 16 16 16 16 16 16 17 17 17 17 17
34 32 31 33 31 30 31 30 28 27 29 28 27 25 24 25 28 30 30 30 31 31 32 32 30 30 29 28 28 28 28 28 27 27 27 26 26 26 25 25 25 25 27 26 24 23 21 18 15 14 14 14 14 13 13 13 13 14 14 14 14 14 14 15 15 15 15 15 15 14 15 15 16 16 16 16 15 16 16 16 16 16 16 17 17
34 33 32 33 31 31 32 32 29 28 30 30 27 26 27 28 31 33 31 31 32 32 32 31 29 28 27 27 27 26 26 26 26 25 25 25 24 24 24 23 23 24 24 24 23 23 23 22 18 15 14 13 13 13 12 12 12 12 13 13 13 14 13 13 14 14 14 14 14 14 14 15 15 15 15 15 15 15 16 16 16 16 16 16 16
35 34 33 35 33 33 34 33 31 30 31 31 29 28 29 30 32 34 33 32 33 31 31 30 28 26 26 26 25 25 25 24 23 23 23 22 22 23 22 22 21 21 21 20 21 22 23 24 21 18 16 14 13 12 11 11 11 11 12 12 12 12 13 13 13 13 14 13 13 13 14 14 14 14 14 14 14 15 15 14 15 15 16 16 16
34 34 34 36 35 34 36 34 32 32 33 32 30 30 32 32 32 34 35 34 33 32 31 29 28 26 25 24 24 23 23 22 21 21 21 20 21 21 21 21 21 20 19 18 19 20 20 21 21 21 19 17 15 13 11 10 10 10 10 11 11 11 11 12 12 12 13 13 12 12 13 13 13 13 13 14 14 14 14 14 14 15 15 15 15
35 33 33 36 37 36 36 35 34 34 34 33 31 32 33 33 33 33 34 36 35 33 31 30 28 27 25 23 23 22 21 21 21 20 19 19 19 20 21 21 20 19 18 17 15 15 17 18 19 19 19 18 16 13 11 9 9 10 10 9 9 10 11 11 12 11 11 12 12 12 12 12 12 12 13 13 13 13 13 13 14 15 15 15 15
36 35 35 36 37 37 36 37 37 34 33 32 31 33 33 34 35 33 31 33 36 36 33 31 29 27 25 23 21 21 20 19 19 18 18 18 18 18 19 19 18 17 15 14 13 14 17 17 16 14 14 15 14 12 12 11 10 9 10 10 9 10 10 10 11 10 10 11 11 11 11 11 11 12 12 12 12 12 12 13 13 14 14 14 14
36 37 37 37 38 37 37 39 38 35 34 32 33 35 35 35 35 35 33 30 32 36 35 33 32 28 25 23 21 19 18 18 17 17 16 15 16 16 16 15 15 14 13 12 12 14 16 15 12 10 10 11 12 13 15 16 13 10 10 10 10 10 9 9 9 9 10 11 11 10 10 10 10 11 11 11 11 11 12 13 13 13 13 13 14
38 39 39 39 39 39 38 37 36 36 34 34 35 35 36 36 35 36 36 33 31 32 35 37 33 26 22 21 21 20 17 16 16 15 14 13 13 13 14 13 12 12 12 12 12 12 13 13 11 11 11 12 14 15 15 16 16 12 10 9 9 9 8 7 8 8 9 10 10 10 10 10 10 10 10 11 11 11 12 12 12 12 12 13 13
38 39 39 39 40 40 38 36 35 36 34 34 35 35 36 37 37 35 34 36 34 33 37 33 25 22 21 18 16 16 15 14 14 13 12 11 11 12 11 12 11 11 11 11 11 11 11 11 11 11 12 13 13 13 13 14 15 13 10 9 8 7 7 6 7 8 9 9 10 9 9 9 9 9 9 10 10 11 11 12 12 12 12 13 14
37 37 39 39 41 41 38 36 36 37 36 35 34 35 36 37 39 37 32 31 31 36 37 28 23 25 21 12 6 7 9 9 11 10 9 10 9 10 10 10 10 10 10 10 10 11 10 10 10 10 11 12 12 12 12 13 13 13 11 9 8 7 7 7 7 8 8 8 8 8 8 8 8 8 9 9 10 11 11 12 12 12 12 13 14
37 37 38 39 40 40 38 37 37 37 37 36 36 36 37 38 38 39 37 30 26 32 31 24 29 29 14 6 6 6 2 5 11 9 6 7 7 9 10 10 10 10 10 10 10 10 10 11 11 11 12 12 12 12 11 12 13 13 13 10 7 7 7 7 7 7 7 7 7 7 7 7 7 8 8 8 10 11 11 11 11 12 12 13 13
37 37 38 39 40 39 38 37 37 37 36 37 37 37 38 39 39 38 40 37 31 31 26 20 29 31 18 10 8 3 2 10 14 8 5 7 7 8 9 9 11 10 10 9 9 10 11 11 11 12 12 11 11 11 11 12 12 14 15 12 7 7 6 6 7 6 6 6 6 6 6 7 7 7 8 9 10 10 11 11 11 12 12 13 14
37 37 38 39 39 39 37 36 36 37 36 37 37 37 38 39 41 40 40 41 38 34 27 22 27 24 19 18 11 5 11 17 11 4 5 8 8 9 9 10 11 10 10 9 9 10 11 11 12 12 12 11 11 11 11 12 13 14 15 11 7 6 4 5 6 6 5 5 5 5 6 6 6 7 8 9 10 10 10 11 11 12 12 13 13
37 37 38 38 38 38 37 36 37 37 37 37 36 37 39 39 41 41 40 40 40 38 31 27 28 21 16 19 11 8 20 22 12 6 5 5 8 10 10 10 10 9 10 10 10 10 11 11 12 12 12 11 11 11 11 11 12 13 14 11 7 5 5 5 6 5 4 4 4 5 5 6 6 6 8 9 9 10 10 10 11 11 12 13 13
37 38 37 37 37 37 37 36 37 38 38 38 38 38 40 40 39 39 39 39 40 40 36 32 31 24 17 17 12 13 22 22 20 16 7 3 6 8 9 10 9 9 10 10 10 10 11 11 12 12 12 12 11 12 12 11 11 10 12 11 7 5 6 6 5 4 4 4 4 4 5 5 6 6 7 8 9 9 10 10 10 11 12 12 13
36 38 37 36 36 37 37 38 38 39 39 39 39 39 40 40 39 38 37 39 39 39 38 36 33 28 23 19 15 19 19 15 19 18 9 6 6 6 10 11 9 9 10 10 10 11 12 12 12 12 12 12 12 12 12 12 11 10 11 10 7 7 7 4 4 3 3 3 4 4 5 5 5 6 7 8 8 9 10 10 10 11 12 12 13
35 37 37 36 35 36 37 38 39 39 40 39 37 38 40 40 40 40 38 39 38 37 38 37 33 31 28 24 23 24 18 12 16 15 10 8 5 7 14 14 10 11 12 13 12 12 12 13 13 12 12 12 12 12 11 10 10 11 11 9 7 9 8 4 3 3 3 3 3 4 4 5 5 6 7 7 8 9 9 9 10 11 11 12 13
33 33 36 36 35 36 36 37 39 39 40 40 38 38 39 41 41 40 38 38 38 36 36 35 33 32 31 29 29 29 23 18 21 20 13 10 8 9 14 14 12 14 14 14 13 12 12 12 13 12 12 13 13 12 10 10 11 12 11 9 7 9 8 5 3 3 3 3 3 3 4 4 5 6 6 7 8 9 9 10 11 11 11 12 13
33 32 33 34 36 36 36 37 38 39 39 39 39 38 38 39 39 39 38 37 37 35 33 32 33 33 32 31 29 29 26 23 26 25 18 16 15 13 15 16 11 11 14 14 12 12 13 13 14 14 13 13 13 12 11 11 12 12 12 9 7 6 6 6 4 2 2 3 3 3 4 4 5 5 6 7 8 9 9 10 11 11 11 12 13
35 35 34 34 35 36 36 36 36 37 38 39 40 40 39 38 38 39 38 37 38 37 34 34 34 33 34 32 29 27 23 20 24 24 19 19 22 18 16 15 10 11 14 14 12 11 13 14 15 15 15 14 13 12 11 12 13 12 11 10 8 5 4 6 5 3 2 2 3 3 3 4 4 5 6 7 8 9 9 10 10 11 11 12 13
39 39 39 37 36 36 36 37 37 37 38 39 39 40 40 39 38 38 38 37 38 38 36 36 35 34 34 33 30 27 23 19 22 24 21 21 24 25 19 11 9 12 12 12 13 12 12 15 16 15 15 15 13 13 12 11 12 12 11 10 8 6 6 6 6 4 3 2 3 3 3 4 4 5 6 7 7 8 9 9 10 11 11 12 12
43 43 43 41 39 39 38 38 39 39 39 39 40 40 40 39 38 38 37 37 37 37 36 35 35 34 33 33 32 28 24 20 20 21 21 19 20 26 25 14 7 7 8 9 12 14 15 16 16 16 16 16 14 14 14 12 12 11 11 10 9 8 7 6 5 4 3 2 3 3 3 3 4 5 6 7 7 8 8 9 10 10 11 12 12
48 46 45 44 41 40 39 39 39 39 39 40 40 40 40 40 40 38 37 37 37 37 36 35 36 35 33 33 31 28 25 22 21 20 18 17 17 24 28 22 11 5 4 6 9 13 16 17 17 17 18 17 15 16 15 12 12 12 11 11 9 8 7 6 6 5 3 2 2 2 3 3 4 5 6 6 7 8 8 9 10 10 11 11 11
47 47 46 44 42 41 40 40 39 39 39 39 39 39 39 39 40 39 38 38 37 37 37 36 36 35 34 32 31 29 26 23 21 18 16 17 19 24 27 25 17 9 5 4 7 13 17 19 19 18 19 18 17 18 16 13 13 13 13 12 9 7 7 6 6 6 6 4 2 2 2 3 4 5 5 6 6 7 8 8 9 10 10 11 10
42 46 45 44 43 42 40 40 39 38 38 38 38 37 38 38 37 38 38 37 37 36 36 36 35 34 33 32 31 29 27 24 21 19 18 20 22 25 25 23 19 14 11 6 5 14 20 21 21 20 20 20 19 19 16 13 14 14 14 12 9 7 7 7 7 7 7 6 4 2 0 2 4 4 5 6 6 7 7 8 9 9 10 10 10
38 43 44 44 43 42 40 39 38 37 36 36 37 36 37 37 36 36 36 37 36 36 35 35 35 34 33 31 30 28 26 24 21 21 22 22 23 25 25 23 20 18 17 11 4 11 22 24 23 21 20 22 21 19 17 15 14 14 14 12 9 9 8 7 7 8 7 7 6 5 3 2 3 4 4 5 6 6 7 7 8 9 9 9 9
37 40 42 43 43 42 40 38 36 36 36 36 36 37 36 36 37 36 36 36 36 36 35 34 34 33 32 30 28 28 26 24 23 23 24 24 23 24 24 24 21 17 18 14 8 9 18 22 22 20 20 22 21 19 19 16 15 14 13 12 10 10 9 8 8 7 7 6 6 6 6 5 4 4 4 5 5 6 6 7 8 8 8 8 9
36 37 40 42 42 41 39 38 37 37 37 37 37 37 37 37 37 36 36 35 35 35 34 33 33 32 31 30 28 27 26 24 24 24 25 25 24 23 24 25 23 18 17 17 15 14 14 17 20 20 20 23 21 20 20 17 16 15 13 12 11 10 9 8 7 6 6 6 6 6 6 6 7 6 6 6 5 6 7 8 9 9 9 9 9
35 35 38 40 41 40 39 38 37 37 37 38 38 38 38 38 37 36 36 36 35 34 33 33 33 32 31 30 28 27 26 24 24 24 25 25 24 25 25 26 25 20 18 20 20 19 17 18 21 20 21 23 22 21 20 17 16 15 14 13 11 10 10 8 6 6 6 6 6 6 7 7 7 7 7 7 7 8 9 9 10 11 10 9 9
33 33 34 37 39 40 39 38 37 38 38 39 39 40 39 39 38 37 36 36 36 36 35 34 33 32 31 30 29 28 26 24 24 24 24 25 25 26 27 27 27 24 21 21 21 20 21 21 22 23 23 23 21 20 19 17 15 15 14 13 12 11 10 8 7 6 6 6 6 6 6 7 7 7 7 7 7 8 9 11 11 11 10 9 9
33 33 32 33 36 39 40 39 39 39 39 39 39 40 40 38 38 38 37 36 36 36 36 34 33 32 32 31 29 28 27 25 25 25 25 26 27 28 27 27 27 26 23 21 20 20 23 24 22 23 24 22 20 20 18 16 15 14 13 13 12 10 9 8 7 7 7 7 6 6 6 6 6 6 6 7 7 8 10 11 11 10 9 9 9
35 34 33 33 34 37 40 41 42 42 41 41 40 40 39 39 38 38 37 37 36 35 34 34 33 33 32 31 30 28 27 27 27 26 27 28 28 28 28 27 27 27 24 21 20 20 22 25 24 22 22 21 20 20 20 19 16 14 13 12 11 10 9 8 7 7 7 7 5 5 6 6 6 6 6 6 7 8 10 11 11 9 9 9 10
37 36 36 36 36 37 39 40 42 43 42 42 41 40 39 39 38 38 37 37 36 35 34 34 34 33 32 31 30 29 29 29 29 28 28 29 29 29 29 28 27 27 25 22 21 20 21 25 25 24 23 22 21 21 21 21 18 16 14 13 11 10 10 9 7 6 6 7 6 5 5 6 6 5 5 6 7 8 10 10 10 9 8 9 10
39 38 38 38 38 38 37 37 38 40 41 41 40 39 39 39 39 38 38 37 36 35 35 34 33 32 31 30 30 29 30 30 30 30 30 30 30 29 29 29 28 27 26 23 22 21 22 24 24 24 25 24 23 22 21 19 16 14 14 14 13 12 10 8 8 7 7 7 7 6 5 5 5 5 5 5 6 7 10 10 9 8 8 9 10
40 41 40 40 39 37 35 35 36 37 39 40 40 40 39 39 39 39 38 37 36 34 33 33 32 31 30 30 30 30 30 31 30 30 30 31 31 30 29 29 29 29 27 25 24 23 24 25 24 24 25 24 22 20 19 18 17 15 15 15 14 13 11 9 9 9 8 7 7 6 6 5 4 4 4 5 6 7 9 9 8 7 8 9 10
38 38 38 38 38 37 35 34 34 35 37 39 40 41 41 40 40 39 38 37 36 35 33 32 31 31 31 31 30 30 30 30 29 29 29 30 31 32 31 30 30 30 29 27 25 25 25 24 23 24 24 23 23 23 22 23 23 20 17 14 12 11 11 10 10 11 10 8 7 7 8 6 4 4 5 4 4 6 8 9 8 7 8 9 10
35 35 35 35 36 36 36 35 34 34 35 36 39 41 41 41 40 38 37 36 36 35 34 33 31 31 31 30 30 29 29 29 28 28 29 29 30 30 30 30 31 31 31 28 26 27 27 25 25 26 24 23 25 26 26 25 23 21 19 17 15 13 13 11 10 12 13 11 9 8 8 8 5 4 5 5 4 5 8 8 7 7 8 10 10
33 33 34 34 34 34 35 36 36 35 35 34 36 38 40 40 39 38 36 36 35 35 34 34 33 31 30 29 29 29 29 29 29 28 28 28 28 27 28 28 30 31 31 30 28 28 27 25 25 26 25 23 24 26 25 23 22 23 23 22 20 18 17 15 11 11 12 11 10 7 6 8 7 5 6 6 4 5 8 8 7 7 9 10 10
32 33 33 34 34 33 34 35 36 36 36 35 35 37 39 39 38 37 36 36 35 34 34 33 33 31 30 29 29 29 29 29 29 28 28 27 27 26 26 26 27 28 28 29 29 29 28 26 25 25 25 23 24 25 25 23 23 24 22 21 22 21 20 18 14 11 10 9 8 6 5 7 9 8 7 7 5 5 8 8 6 6 9 9 10
32 33 32 32 32 33 33 34 35 35 36 36 37 38 38 38 38 36 36 35 35 34 34 33 32 31 31 30 30 30 30 29 29 29 28 27 25 24 24 25 26 25 25 26 26 27 27 26 25 25 25 24 24 26 26 24 24 25 24 22 22 22 20 18 15 12 10 8 7 7 6 7 10 10 9 8 7 6 8 7 6 5 8 8 10
31 32 33 32 33 33 34 34 34 34 35 36 37 38 38 38 37 36 35 34 34 33 33 33 33 33 33 33 32 32 31 31 31 30 30 29 27 25 25 26 26 25 25 24 24 24 23 23 24 24 24 23 23 24 25 24 24 25 25 24 23 23 21 18 15 13 11 9 7 6 5 6 9 11 10 10 8 8 8 7 5 4 6 7 10
31 33 34 34 33 33 34 34 34 34 35 36 37 39 39 38 37 35 34 33 32 32 31 32 33 33 33 33 33 34 34 33 33 32 31 30 29 27 26 26 26 25 25 24 23 23 22 23 23 23 22 22 23 23 24 24 23 22 21 22 22 23 21 18 14 12 11 11 9 6 4 6 10 12 12 11 10 9 8 7 4 4 6 7 10
29 30 32 33 33 33 33 34 34 34 34 35 37 39 39 38 37 35 33 32 31 30 31 31 32 32 33 33 34 34 34 34 33 32 32 31 30 29 27 26 26 26 25 24 23 22 22 23 23 22 22 23 23 22 23 24 24 23 21 21 21 22 20 16 12 11 11 12 11 9 8 9 10 12 13 12 11 10 8 10 4 4 5 7 10
28 29 31 33 34 33 33 34 35 34 34 35 36 37 38 39 38 36 33 31 30 30 30 31 32 32 33 33 33 33 33 33 33 32 32 31 31 30 29 28 27 27 26 25 24 23 23 24 24 22 22 22 22 22 22 23 23 23 23 24 24 23 20 15 11 11 13 13 12 11 10 9 10 12 13 13 12 9 8 12 6 5 7 7 9
29 29 29 30 31 32 34 35 35 34 34 35 36 37 38 39 38 36 33 31 30 29 29 30 31 32 32 32 33 33 33 33 33 33 33 33 32 32 31 30 29 28 28 27 25 24 24 24 23 21 21 21 20 21 21 22 22 22 23 25 24 22 20 16 13 12 12 14 15 13 9 9 10 11 11 12 10 6 7 12 7 6 8 7 9
28 27 27 28 29 30 32 32 33 33 33 34 35 36 38 39 38 36 33 31 30 29 29 30 30 30 31 31 32 32 32 33 33 33 34 34 34 33 33 32 31 30 30 29 28 27 27 26 24 22 21 21 20 21 21 21 22 23 23 23 22 21 20 18 17 13 8 11 16 15 12 10 10 10 9 8 4 3 6 10 7 7 8 7 9
Wind_Direction
162 163 164 164 164 166 169 167 161 159 156 152 153 157 160 159 153 152 156 157 148 136 134 129 124 125 122 117 118 117 116 117 117 116 114 112 110 108 105 102 99 99 98 97 96 94 91 91 93 90 88 87 84 82 82 81 79 77 75 72 71 70 70 70 66 64 62 61 61 58 56 55 53 52 51 49 48 47 46 43 42 41 39 37 35
164 166 165 163 164 165 169 167 164 165 162 157 161 167 166 163 160 159 160 156 150 142 137 132 126 128 127 120 118 118 118 118 119 119 118 116 114 113 110 106 101 98 98 97 96 96 93 93 95 93 91 89 86 84 83 82 79 79 77 73 72 72 71 69 66 64 62 61 60 58 57 55 53 50 49 48 47 47 43 41 41 39 37 36 33
167 169 167 165 166 169 171 169 168 170 167 164 168 170 167 168 167 164 163 156 150 144 138 134 129 129 129 123 119 117 116 117 118 119 120 119 118 117 115 112 107 102 97 96 96 96 96 96 95 95 93 89 89 87 84 82 80 79 78 74 72 72 70 67 65 64 61 60 59 58 57 54 50 50 50 48 46 44 40 39 40 38 36 34 32
169 171 170 169 169 171 173 171 171 173 171 169 167 166 167 170 170 167 164 157 150 144 138 136 132 129 129 126 122 121 117 117 118 118 120 121 121 120 119 118 115 110 103 97 97 98 99 99 97 97 95 93 92 87 85 83 81 79 78 76 72 71 70 67 67 64 60 59 58 58 56 52 50 52 50 46 43 40 38 40 40 37 35 33 32
171 172 171 171 172 173 174 172 171 174 173 168 165 166 169 170 168 165 162 158 151 143 138 135 132 129 128 127 125 124 122 121 121 121 122 122 123 124 123 123 121 118 112 104 99 98 98 99 99 100 98 96 93 88 88 85 83 82 79 77 73 73 72 68 66 62 58 58 57 56 54 51 51 50 46 42 41 39 40 42 38 35 34 32 30
173 171 171 171 173 173 172 171 171 173 171 166 166 170 174 171 165 162 160 159 151 145 141 135 131 130 129 129 128 127 128 126 126 127 128 128 128 127 127 127 125 124 121 115 110 107 107 103 98 102 102 99 95 91 90 87 84 82 80 78 74 75 74 67 64 60 58 58 55 55 52 51 49 46 42 40 39 40 41 40 35 32 31 29 27
174 172 172 172 173 173 170 170 174 175 172 170 172 172 173 170 166 162 157 155 150 145 143 137 132 131 130 130 129 130 131 131 133 135 136 136 135 133 131 130 130 131 129 126 124 123 121 111 99 99 103 101 97 93 91 89 86 83 82 81 77 76 73 67 65 62 59 56 54 54 53 50 47 43 42 40 40 40 38 35 32 32 30 27 25
174 173 172 173 175 174 172 173 176 176 174 176 178 175 171 167 166 168 160 152 150 144 141 139 133 129 130 130 129 131 132 133 137 138 140 142 140 137 134 134 134 135 136 136 134 132 130 121 110 108 108 101 94 93 93 91 90 88 84 82 79 75 72 70 68 62 58 56 54 54 52 47 43 43 41 41 41 37 33 31 31 31 29 25 23
175 174 172 175 176 175 174 175 177 176 174 177 179 176 173 167 163 168 166 157 152 145 138 135 131 127 126 126 127 130 131 133 137 138 142 143 141 141 139 138 138 138 138 138 137 135 137 134 128 126 121 109 96 89 91 92 93 91 87 85 81 76 75 73 68 62 58 57 56 54 49 43 43 43 40 39 37 32 31 32 31 28 25 23 23
177 176 175 177 178 177 175 176 176 174 174 176 179 176 175 171 163 162 167 165 157 149 140 133 128 124 121 121 125 128 128 133 137 139 142 143 143 145 144 144 143 144 143 141 136 134 141 143 140 137 131 120 103 88 89 94 94 93 89 87 84 80 78 73 67 63 60 57 56 51 46 43 43 41 38 36 32 31 32 31 27 24 22 21 21
179 179 181 179 179 179 177 176 177 175 174 175 176 174 172 170 165 159 161 164 161 154 144 134 124 119 118 116 118 124 127 132 136 140 142 143 147 147 148 149 150 152 152 151 145 140 144 146 146 142 134 125 105 89 98 102 97 96 91 87 90 90 80 72 67 62 60 58 52 48 46 43 42 39 36 32 30 32 30 26 24 21 21 21 19
181 182 185 183 180 181 178 177 180 180 178 176 174 173 171 167 164 161 156 152 153 152 147 138 122 110 109 111 111 115 119 125 129 135 138 140 145 147 149 151 154 157 156 157 153 148 150 150 150 145 134 127 116 113 119 112 100 96 95 87 88 92 80 68 66 63 62 58 49 46 46 44 40 37 35 33 32 31 26 23 21 18 19 18 16
184 184 185 184 181 180 179 178 182 184 183 181 176 174 174 169 164 163 160 153 148 147 148 143 127 111 104 99 99 102 106 115 120 126 133 136 143 146 150 152 153 156 154 155 155 153 155 155 152 145 135 133 132 133 131 119 105 96 98 91 81 84 78 66 67 68 65 56 47 44 44 41 37 35 34 33 31 25 22 21 18 18 18 16 16
184 184 184 184 180 178 179 180 181 183 182 179 177 175 173 171 164 160 161 160 157 153 152 148 135 128 125 105 90 90 92 102 112 121 129 133 145 147 149 154 151 152 154 156 159 158 161 163 160 156 149 146 146 143 137 125 108 90 89 93 82 77 75 76 77 73 65 52 42 42 42 37 35 35 30 26 26 23 20 18 15 16 17 14 14
186 185 185 184 182 180 181 182 182 182 179 175 175 174 172 172 169 165 162 160 162 163 162 161 149 137 130 122 117 102 85 90 104 117 138 142 151 153 152 155 149 151 158 159 165 166 168 171 170 170 166 161 157 150 144 134 116 95 85 85 86 83 80 88 86 71 58 45 39 40 39 34 33 31 26 24 25 20 16 13 12 15 13 10 9
188 188 186 185 184 183 183 183 183 183 182 177 175 176 175 175 174 170 166 160 162 169 170 170 163 151 131 105 131 139 128 129 114 105 134 148 154 162 158 157 152 154 163 164 166 168 171 174 175 176 175 173 168 162 158 146 131 117 101 88 89 92 83 86 86 68 52 43 39 40 35 32 33 27 24 25 20 14 12 11 11 11 9 7 7
189 189 188 187 185 185 184 184 185 185 185 183 182 182 181 179 179 177 174 170 169 173 175 177 175 168 158 143 137 148 180 144 131 114 130 144 153 166 162 161 161 163 167 165 165 168 172 175 178 180 181 182 178 174 171 155 139 124 109 97 102 103 82 75 79 66 54 46 38 39 34 29 29 23 21 19 14 11 11 9 8 8 6 5 4
190 190 189 189 187 187 187 186 187 187 188 189 186 185 183 183 183 182 182 180 174 173 177 182 182 177 172 170 168 176 160 147 138 111 132 146 153 161 165 168 172 174 169 164 167 172 175 177 180 182 182 185 182 177 173 162 148 132 113 98 100 111 90 70 76 67 56 50 38 36 34 30 25 20 19 15 11 10 8 5 5 6 4 2 0
189 189 190 190 190 189 189 189 190 192 192 191 189 188 187 187 187 186 184 183 177 174 177 180 181 185 186 180 176 178 169 161 158 145 135 160 168 166 175 180 181 182 174 171 175 176 178 180 181 184 184 184 184 179 178 171 158 146 128 107 97 112 101 80 79 71 59 50 39 36 32 29 24 18 16 12 9 8 6 3 3 4 3 0 358
189 188 188 191 192 191 191 191 192 193 193 193 194 194 192 188 189 189 186 185 183 179 178 179 181 185 186 181 178 175 174 173 172 162 137 142 167 171 179 182 183 182 178 177 178 178 179 181 183 187 187 187 188 186 187 179 166 163 147 121 99 101 97 83 79 72 64 51 35 34 32 27 22 17 13 9 8 5 2 2 2 2 1 358 357
190 189 189 192 194 194 194 194 194 194 194 195 196 195 193 190 189 190 188 188 189 185 182 182 183 183 179 172 160 156 163 172 171 160 133 136 165 177 171 170 175 179 179 177 179 184 184 185 189 191 190 191 193 195 197 189 178 174 160 137 112 105 95 82 84 74 58 48 34 30 30 26 20 15 10 7 5 2 360 2 2 1 358 356 356
192 192 192 195 197 198 198 198 197 198 198 197 195 193 193 193 192 192 192 191 190 189 189 187 186 185 182 172 158 153 154 157 165 160 135 130 144 163 165 165 163 167 179 182 183 191 192 191 194 195 194 195 199 202 201 192 183 177 170 163 146 125 105 84 87 78 58 47 34 27 26 23 18 11 6 4 1 359 359 1 0 358 356 354 353
195 194 195 196 199 201 203 202 201 201 201 199 197 195 194 194 195 194 194 194 192 192 192 189 187 188 187 183 175 171 170 171 174 170 153 136 130 146 162 163 156 158 174 187 190 195 197 195 197 199 199 198 203 205 200 189 184 184 185 184 170 145 119 97 92 79 68 53 31 28 22 16 16 8 2 0 357 358 359 359 358 355 353 352 351
197 198 199 199 201 203 204 205 203 203 203 203 202 200 197 195 194 194 194 195 193 192 191 188 188 188 188 190 189 184 183 184 179 175 171 160 145 139 153 156 151 158 170 179 187 195 197 196 198 203 202 202 208 208 197 190 193 198 202 202 192 167 123 101 99 86 69 53 37 30 18 10 11 6 359 357 356 356 357 356 355 352 351 351 350
198 202 205 204 204 204 205 207 208 208 207 207 206 204 201 197 195 194 194 195 194 193 192 190 191 191 190 191 192 189 190 189 182 177 172 158 142 135 148 153 145 153 168 175 178 188 201 204 204 205 206 204 209 214 203 192 199 207 212 214 208 189 142 120 112 96 79 55 38 24 16 9 5 2 356 355 356 355 354 353 352 350 350 350 350
204 206 208 209 211 210 210 212 213 213 211 210 209 206 203 200 198 196 195 195 195 194 194 193 193 193 193 193 192 192 191 185 182 179 172 161 149 142 142 138 133 145 162 181 181 184 199 207 208 206 208 209 207 215 213 200 201 208 212 217 213 203 187 166 141 108 88 61 39 23 17 8 358 358 356 355 357 353 351 351 350 349 348 348 349
212 212 209 209 213 213 212 213 213 213 212 211 209 206 203 202 201 199 198 197 196 194 194 194 194 194 195 194 192 191 190 185 184 184 182 179 170 161 155 141 125 145 162 180 191 201 203 202 207 209 211 212 209 217 218 205 202 206 211 218 214 209 211 200 181 151 116 82 52 24 10 10 2 357 357 357 357 353 351 350 348 347 346 345 346
207 209 208 207 210 212 212 213 214 213 211 210 208 206 204 202 201 200 199 198 198 197 196 196 197 196 196 195 193 192 193 192 190 192 195 198 196 185 175 164 151 147 170 182 195 209 210 201 199 207 216 214 209 217 220 206 199 203 210 220 216 207 214 219 214 214 210 177 95 41 10 9 4 359 357 354 353 351 349 348 346 344 345 346 346
199 201 203 203 205 209 210 211 212 211 210 208 206 205 203 202 201 200 200 200 199 198 198 198 198 197 196 196 198 197 197 199 198 201 206 206 200 195 190 185 175 156 151 193 197 195 203 204 198 199 210 214 210 214 217 207 200 203 209 220 219 207 215 223 226 237 244 232 178 83 34 12 2 358 356 353 353 351 347 346 345 345 345 348 350
197 196 197 198 201 205 206 206 207 208 207 205 204 203 202 202 202 202 202 201 200 198 199 199 198 198 197 197 199 201 202 203 205 205 204 203 199 195 198 201 197 186 169 163 189 189 189 196 203 202 201 205 209 212 213 208 203 205 211 218 219 213 218 224 232 242 248 251 246 218 119 21 9 357 354 355 355 350 348 346 344 345 347 349 353
201 196 195 195 198 201 203 204 204 203 203 203 203 203 203 203 202 202 203 202 200 199 199 199 198 197 196 195 198 202 205 205 205 203 199 200 201 200 201 201 204 206 191 165 139 189 189 191 200 207 205 202 204 209 210 206 201 203 210 215 216 220 224 222 230 241 246 256 266 266 273 313 355 2 359 357 355 350 348 347 346 349 350 350 356
205 200 197 196 197 199 201 202 202 201 202 202 204 204 203 203 202 201 201 200 199 199 198 198 198 197 196 197 199 201 204 205 205 203 202 203 204 204 203 200 199 206 200 176 129 156 189 197 197 199 203 201 199 204 206 203 200 203 210 214 215 224 228 222 225 236 247 260 273 281 286 292 303 323 339 345 350 346 344 346 345 347 347 348 355
206 203 200 198 198 198 200 202 202 202 201 201 202 202 201 200 200 200 200 198 197 198 197 198 198 198 198 197 198 200 203 207 207 206 205 204 204 203 202 199 194 195 196 177 141 134 167 193 194 191 195 196 195 202 207 204 200 202 208 212 216 227 232 229 226 234 252 265 273 283 291 297 297 301 306 310 317 319 324 333 336 338 341 346 354
207 204 202 200 199 198 198 199 200 201 201 201 200 199 198 196 196 197 198 197 196 196 196 197 198 198 198 196 197 199 203 207 207 207 206 203 201 200 198 197 191 188 192 181 156 141 150 174 183 183 189 195 195 202 210 208 201 202 208 211 214 220 228 235 237 240 255 265 271 281 289 297 300 300 297 297 302 310 317 327 331 335 338 345 352
207 204 202 200 198 198 198 198 200 201 200 199 197 197 195 194 192 194 197 197 196 196 195 195 195 194 194 195 198 201 202 204 205 207 205 202 200 197 195 195 191 186 193 192 176 158 151 162 178 180 183 193 199 202 210 211 205 203 206 210 214 216 221 231 242 250 258 262 269 279 287 294 296 293 293 297 306 315 323 329 333 334 336 342 347
209 205 202 200 196 194 195 197 199 198 197 196 196 196 195 195 193 193 194 195 196 196 195 193 193 194 195 196 199 201 200 201 202 203 201 199 199 196 193 193 192 190 193 197 193 181 164 161 175 184 185 191 198 201 204 205 206 204 201 205 213 218 222 224 231 246 255 259 264 273 285 293 290 286 291 301 312 319 324 328 330 333 335 337 341
209 206 204 201 197 194 193 196 197 197 196 196 195 195 196 195 195 194 193 194 196 197 196 197 198 199 199 200 200 200 199 199 199 198 198 197 195 194 194 192 191 193 194 195 196 194 180 169 170 181 188 191 193 199 202 201 200 198 199 206 213 219 226 226 224 231 244 256 260 266 281 287 284 284 291 305 316 319 322 326 326 330 335 335 336
206 205 204 202 200 197 195 195 196 195 195 195 195 195 194 194 194 194 194 195 197 198 199 201 202 203 203 203 202 202 201 200 199 196 195 194 193 193 193 192 190 191 192 192 193 192 185 174 169 175 185 190 190 193 200 205 202 197 197 203 211 221 228 231 230 224 230 252 260 261 275 280 281 284 293 307 313 315 319 323 322 324 332 334 334
201 202 202 202 201 199 197 195 194 193 192 193 194 194 193 191 190 191 193 194 196 198 200 201 202 203 204 205 205 205 204 203 201 197 193 192 193 194 194 192 189 188 187 188 188 184 176 171 170 174 180 187 191 191 197 205 207 206 205 202 204 213 223 229 239 237 232 242 256 268 274 267 270 277 284 297 303 312 320 317 314 319 329 333 332
200 200 200 200 199 199 198 196 193 193 192 191 191 191 190 189 189 191 192 193 194 196 198 200 201 203 205 207 208 207 206 205 203 200 197 195 193 192 193 192 189 187 185 184 181 178 173 169 169 173 175 180 187 189 191 194 195 201 209 208 205 207 213 219 232 241 242 239 246 269 277 255 248 264 278 291 299 314 320 311 304 311 327 335 332
198 198 197 198 197 196 196 195 193 193 193 192 191 191 189 189 190 191 191 192 192 193 194 197 200 202 204 206 206 205 204 204 204 202 201 201 198 194 192 191 189 186 184 181 177 174 171 168 168 171 172 176 182 184 186 191 195 196 198 202 202 203 208 210 221 236 245 245 239 259 280 271 254 268 285 296 308 320 318 304 294 304 328 338 332
195 195 195 195 196 194 193 193 193 193 193 193 193 192 191 190 189 189 188 189 191 192 193 194 196 199 201 202 203 202 201 201 201 202 201 201 202 200 197 195 193 189 182 178 177 176 174 171 171 173 174 178 185 187 190 196 200 196 193 193 191 190 196 200 216 237 243 243 241 253 278 281 274 280 294 305 318 324 320 305 290 306 334 340 330
192 192 193 194 194 194 193 192 192 193 194 195 194 192 192 191 189 186 186 187 190 192 194 194 193 194 196 198 199 197 197 198 199 200 200 199 200 201 201 200 198 195 189 183 180 180 178 176 178 180 180 182 187 192 195 199 200 199 199 199 195 192 194 196 208 233 238 237 244 256 278 286 282 276 289 306 314 323 323 308 287 309 337 335 326
190 190 192 192 192 193 192 191 191 193 194 195 195 193 192 191 190 188 188 189 190 192 194 193 192 191 191 193 195 194 195 197 197 196 196 197 199 200 200 199 198 198 198 195 190 187 184 182 183 186 189 187 187 193 200 201 199 199 201 203 203 201 203 205 208 224 233 230 239 260 277 285 283 276 283 299 300 310 318 299 276 311 335 329 326
189 188 189 191 191 191 191 191 191 192 193 195 195 194 193 192 192 192 192 192 192 193 193 192 191 190 189 189 190 192 195 197 196 195 193 192 194 195 195 195 194 195 198 200 199 197 195 194 192 194 197 196 194 200 207 205 198 195 196 201 204 204 207 210 209 218 231 231 242 268 281 280 272 269 279 290 287 300 309 283 264 315 334 327 326
188 185 187 190 190 191 191 191 191 191 193 194 194 195 194 194 194 195 195 195 194 194 194 193 191 190 190 191 191 192 194 195 195 194 192 189 188 188 188 190 192 193 195 197 198 199 202 205 206 206 207 207 209 210 210 208 204 200 200 202 203 203 205 207 207 215 228 239 253 273 288 276 259 259 274 283 283 295 293 255 248 320 336 328 323
190 187 187 189 189 190 191 191 191 192 193 194 194 195 195 195 195 195 194 193 193 193 193 193 193 193 194 195 196 195 194 194 195 194 192 189 187 185 185 188 191 194 195 198 200 201 204 210 214 214 211 212 217 215 210 209 210 209 211 210 207 205 202 201 204 211 225 241 251 253 251 250 250 259 274 280 286 294 270 225 227 337 341 328 322
193 189 187 188 188 188 190 192 193 193 194 194 194 196 196 195 193 192 191 191 191 191 192 193 195 196 197 198 199 198 196 194 194 195 194 192 189 186 185 188 191 194 196 199 202 204 207 210 213 214 212 212 215 214 211 210 209 209 208 205 204 203 197 192 196 208 225 242 248 243 238 243 252 263 273 280 292 294 246 205 205 355 347 327 323
192 191 189 190 190 189 190 192 193 193 193 193 193 195 196 195 192 189 189 190 189 190 191 194 197 198 199 202 202 200 199 197 196 197 197 195 192 190 189 189 191 194 197 199 200 202 207 211 212 212 212 211 212 212 212 212 212 211 204 196 196 197 192 184 188 207 226 239 242 238 237 247 255 260 274 289 298 291 226 200 207 345 345 327 324
192 193 192 190 190 190 192 194 194 194 193 193 193 195 196 195 191 188 187 186 186 189 191 194 198 200 201 204 206 205 203 201 199 199 200 199 196 194 192 191 191 194 197 198 199 200 205 210 211 210 211 212 211 210 211 212 212 212 209 203 201 197 192 188 189 200 222 238 240 235 233 246 254 260 282 298 297 275 213 202 219 318 333 324 324
191 192 193 191 191 192 194 196 196 196 193 191 193 195 196 195 192 188 186 185 185 188 191 193 197 201 204 207 209 210 209 205 200 200 202 202 200 199 198 194 193 195 198 199 200 200 202 205 206 207 207 208 208 207 208 209 208 208 211 214 211 204 197 195 193 191 206 233 236 232 228 238 249 258 282 302 298 261 216 208 236 307 321 319 326